SCP
0 0 0 0 0 0 0 0 0 0 0 0 0 0 0 0 0 0 0 0 0 0 0 0 0 0 0 0 0 0 0 0 0 0 0 0 0 0 0 0 0 0 0
0 0 0 0 0 0 0 0 0 0 0 0 0 0 0 0 0 0 0 0 0 0 0 0 0 0 0 0 0 0 0 0 0 0 0 0 0 0 0 0 0 0 0
0 0 0 0 0 0 0 0 0 0 0 0 0 0 0 0 0 0 0 0 0 0 0 0 0 0 0 0 0 0 0 0 0 0 0 0 0 0 0 0 0 0 0
0 0 0 0 0 0 0 0 0 0 0 0 0 0 0 0 0 0 0 0 0 0 0 0 0 0 0 0 0 0 0 0 0 0 0 0 0 0 0 0 0 0 0
0 0 0 0 0 0 0 0 0 0 0 0 0 0 0 0 0 0 0 0 0 0 0 0 0 0 0 0 0 0 0 0 0 0 0 0 0 0 0 0 0 0 0
0 0 0 0 0 0 0 0 0 0 0 0 0 0 0 0 0 0 0 0 0 0 0 0 0 0 0 0 0 0 0 0 0 0 0 0 0 0 0 0 0 0 0
0 0 0 0 0 0 0 0 0 0 0 0 0 0 0 0 0 0 0 0 0 0 0 0 0 0 0 0 0 0 0 0 0 0 0 0 0 0 0 0 0 0 0
0 0 0 0 0 0 0 0 0 0 0 0 0 0 0 0 0 0 0 0 0 0 0 0 0 0 0 0 0 0 0 0 0 0 0 0 0 0 0 0 0 0 0
0 0 0 0 0 0 0 0 0 0 0 0 0 0 0 0 0 0 0 0 0 0 0 0 0 0 0 0 0 0 0 0 0 0 0 0 0 0 0 0 0 0 0
0 0 0 0 0 0 0 0 0 0 0 0 0 0 0 0 0 0 0 0 0 0 0 0 0 0 0 0 0 0 0 0 0 0 0 0 0 0 0 0 0 0 0
0 0 0 0 0 0 0 0 0 0 0 0 0 0 0 0 0 0 0 0 0 0 0 0 0 0 0 0 0 0 0 0 0 0 0 0 0 0 0 0 0 0 0
0 0 0 0 0 0 0 0 0 0 0 0 0 0 0 0 0 0 0 0 0 0 0 0 0 0 0 0 0 0 0 0 0 0 0 0 0 0 0 0 0 0 0
0 0 0 0 0 0 0 0 0 0 0 0 0 0 0 0 0 0 0 0 0 0 0 0 0 0 0 0 0 0 0 0 0 0 0 0 0 0 0 0 0 0 0
0 0 0 0 0 0 0 0 0 0 0 0 0 0 0 0 0 0 0 0 0 0 0 0 0 0 0 0 0 0 0 0 0 0 0 0 0 0 0 0 0 0 0
0 0 0 0 0 0 0 0 0 0 0 0 0 0 0 0 0 0 0 0 0 0 0 0 0 0 0 0 0 0 0 0 0 0 0 0 0 0 0 0 0 0 0
0 0 0 0 0 0 0 0 0 0 0 0 0 0 0 0 0 0 0 0 0 0 0 0 0 0 0 0 0 0 0 0 0 0 0 0 0 0 0 0 0 0 0
0 0 0 0 0 0 0 0 0 0 0 0 0 0 0 0 0 0 0 0 0 0 0 0 0 0 0 0 0 0 0 0 0 0 0 0 0 0 0 0 0 0 0
0 0 0 0 0 0 0 0 0 0 0 0 0 0 0 0 0 0 0 0 0 0 0 0 0 0 0 0 0 0 0 0 0 0 0 0 0 0 0 0 0 0 0
0 0 0 0 0 0 0 0 0 0 0 0 0 0 0 0 0 0 0 0 0 0 0 0 0 0 0 0 0 0 0 0 0 0 0 0 0 0 0 0 0 0 0
0 0 0 0 0 0 0 0 0 0 0 0 0 0 0 0 0 0 0 0 0 0 0 0 0 0 0 0 0 0 0 0 0 0 0 0 0 0 0 0 0 0 0
0 0 0 0 0 0 0 0 0 0 0 0 0 0 0 0 0 0 0 0 0 0 0 0 0 0 0 0 0 0 0 0 0 0 0 0 0 0 0 0 0 0 0
0 0 0 0 0 0 0 0 0 0 0 0 0 0 0 0 0 0 0 0 0 0 0 0 0 0 0 0 0 0 0 0 0 0 0 0 0 0 0 0 0 0 0
0 0 0 0 1 0 0 0 0 0 0 0 0 0 0 0 0 0 0 0 0 0 0 0 0 0 0 0 0 0 0 0 0 0 0 0 0 0 0 0 0 0 0
0 0 1 1 1 1 0 0 0 0 0 0 0 0 0 0 0 0 0 0 0 0 0 0 0 0 0 0 0 0 0 0 0 0 0 0 0 0 0 0 0 0 0
1 1 1 1 1 1 1 0 0 0 0 0 0 0 0 0 0 0 0 0 0 0 0 0 0 0 0 0 0 0 0 0 0 0 0 0 0 0 0 0 0 0 0
1 1 1 1 1 1 1 0 0 0 0 0 0 0 0 0 0 0 0 0 0 0 0 0 0 0 0 0 0 0 0 0 0 0 0 0 0 0 0 0 0 0 0
Wind_Speed
6 8 11 10 10 10 11 12 13 13 14 15 15 15 15 15 15 15 15 15 15 16 16 16 16 15 15 15 15 15 15 14 14 14 14 14 13 13 13 13 13 12 16
6 8 10 9 10 11 12 13 13 13 14 14 15 15 15 14 15 15 15 15 16 16 15 16 15 15 14 14 14 14 14 14 14 14 14 13 13 12 11 10 8 12 15
7 8 9 10 11 12 13 13 13 14 14 14 14 14 14 14 15 15 15 15 15 15 15 15 15 14 14 13 13 13 13 13 13 12 11 10 12 11 11 11 12 14 14
7 8 9 10 11 12 12 12 13 13 13 13 14 14 14 15 15 15 15 15 15 15 15 14 14 14 13 12 12 12 12 12 11 9 7 8 10 12 11 11 12 13 13
8 9 11 9 10 12 12 12 12 13 13 13 14 14 14 15 15 15 15 14 14 14 14 14 14 13 13 12 12 11 11 10 8 7 7 7 9 12 11 11 12 13 13
8 9 12 9 11 12 12 11 11 12 13 13 13 13 14 14 14 14 14 13 13 13 13 13 12 12 12 11 11 10 10 8 8 7 7 7 8 11 12 12 12 12 12
9 9 12 11 11 12 12 12 11 12 12 13 13 13 13 13 13 13 13 12 12 12 12 12 11 11 10 10 9 9 8 5 4 6 6 6 8 11 11 11 11 12 12
9 10 11 12 11 11 12 12 12 12 12 13 13 12 12 12 12 12 12 11 11 11 11 10 10 9 9 8 8 7 6 6 6 6 6 7 10 10 11 11 11 11 11
8 8 9 10 10 11 12 12 12 12 12 12 12 12 12 12 11 11 11 10 10 10 10 9 9 8 8 7 7 6 5 3 3 4 6 7 11 10 11 11 11 11 11
7 7 8 8 7 8 10 12 11 12 12 11 11 11 11 11 11 10 10 10 9 9 9 8 8 7 6 6 6 6 5 6 4 5 4 8 11 11 11 11 11 10 10
6 6 6 7 6 7 8 10 9 10 10 8 9 9 5 6 7 7 11 9 8 7 7 7 7 6 5 7 6 6 6 3 4 3 4 11 10 11 11 11 10 10 10
6 6 5 6 6 6 6 6 5 6 6 5 5 5 5 5 4 6 9 7 7 6 6 6 5 6 5 5 7 8 4 3 3 3 6 11 10 10 11 11 11 10 10
5 5 6 5 4 5 4 4 3 3 4 5 5 4 4 3 3 3 3 5 4 4 3 5 5 2 2 2 1 2 2 2 2 2 7 10 10 10 11 11 11 10 10
5 5 5 5 4 3 3 3 3 3 3 3 4 3 3 2 2 3 1 2 2 1 1 1 1 1 1 2 1 1 2 2 2 2 6 10 9 9 10 11 11 11 10
5 4 4 3 3 3 2 1 3 3 3 4 3 3 2 2 2 2 2 1 1 1 2 1 1 2 1 2 1 1 1 2 2 2 4 9 9 9 10 10 11 11 11
4 5 4 3 4 2 2 1 1 2 2 2 2 3 2 2 2 1 1 0 1 1 1 0 1 1 1 1 1 1 1 1 2 2 3 7 9 9 9 10 10 11 11
4 4 4 3 3 2 1 1 1 2 2 2 2 3 2 2 2 1 1 1 1 1 1 1 0 1 2 2 2 2 2 1 2 3 3 3 6 10 10 9 10 10 11
4 4 3 3 3 2 1 1 0 1 1 1 1 2 2 1 1 1 1 0 0 1 1 1 1 1 1 1 1 1 2 2 3 3 4 4 3 5 9 10 9 9 10
5 5 4 3 3 2 2 2 1 1 0 1 1 1 1 2 2 2 0 0 1 1 1 1 1 1 1 1 2 2 2 2 2 3 3 4 3 3 4 8 9 8 8
6 5 5 4 3 3 2 2 1 1 1 1 1 0 1 1 2 2 1 1 2 1 1 1 1 1 2 2 2 1 1 2 2 2 3 3 3 4 3 4 6 7 8
7 7 6 5 4 3 2 2 2 2 2 1 1 1 1 1 1 2 1 1 2 1 2 2 1 2 2 1 2 2 2 3 2 2 2 2 3 3 3 3 3 3 5
8 7 7 6 5 5 3 2 1 1 1 1 0 1 1 1 1 2 1 2 1 1 2 2 2 2 1 1 2 2 2 4 3 2 2 2 2 2 3 4 3 3 2
9 9 7 6 6 5 4 3 2 2 2 2 1 1 1 1 1 1 1 2 2 2 1 2 2 2 2 1 1 1 1 0 1 3 2 2 2 2 2 3 4 3 3
10 9 8 7 6 6 6 4 4 3 2 1 1 0 0 1 1 2 2 2 3 2 2 3 1 2 2 1 1 1 1 1 1 1 2 2 2 2 1 1 2 3 3
9 9 8 8 7 7 6 5 5 4 2 2 1 1 1 1 1 2 2 2 2 2 2 3 2 3 2 2 1 1 1 1 2 2 1 1 2 2 1 1 1 2 2
9 9 9 8 8 7 7 6 5 4 3 2 2 1 2 1 1 1 2 2 3 3 2 3 3 3 2 2 2 1 1 1 1 1 1 1 1 1 2 1 1 2 2
Wind_Direction
53 62 66 60 64 73 80 86 91 90 90 95 99 103 105 105 106 106 108 111 113 117 117 115 114 116 117 118 119 120 121 121 122 120 118 117 118 120 124 130 135 119 118
67 73 75 63 67 71 83 89 91 91 92 94 97 101 103 105 105 106 107 109 110 111 113 113 113 115 116 117 120 120 120 120 120 120 122 120 117 118 122 124 115 114 125
74 82 88 70 70 72 81 88 90 92 93 96 98 102 104 104 102 103 104 104 107 109 111 112 114 113 114 115 117 118 118 120 122 131 148 134 122 120 119 118 118 122 125
79 83 76 78 74 75 80 87 92 93 94 96 99 100 101 102 101 101 102 103 104 108 111 113 115 115 115 116 115 117 119 122 131 158 152 124 126 124 126 126 127 127 127
82 84 81 75 76 76 78 83 89 93 93 94 96 99 100 99 99 100 100 102 103 105 108 112 114 116 118 119 119 119 121 127 150 170 117 118 119 128 133 133 132 130 130
87 84 83 76 77 75 75 79 87 92 96 96 95 96 98 98 100 101 101 103 103 105 107 109 112 115 117 119 121 124 129 146 179 130 126 126 122 134 137 137 136 133 132
86 85 86 81 80 79 77 77 88 94 95 96 97 96 95 96 99 102 104 106 106 107 107 108 109 113 117 119 122 128 139 175 167 121 126 122 121 137 142 140 140 138 137
87 90 95 93 84 83 83 78 84 90 91 90 91 93 95 95 95 97 101 104 107 106 107 110 112 114 118 123 125 130 150 202 156 135 132 126 125 143 147 146 145 143 142
84 85 92 98 100 95 88 86 83 85 91 91 90 92 96 96 95 96 97 99 104 107 108 109 112 114 117 122 131 138 158 221 176 137 137 126 136 149 153 152 150 149 149
88 85 87 84 90 103 102 94 91 91 92 94 96 96 99 105 106 107 107 96 99 103 106 109 110 112 120 124 135 146 172 212 166 144 136 126 144 155 156 157 156 154 154
96 87 85 93 94 91 92 100 109 108 103 111 107 106 120 107 105 116 87 94 101 103 107 110 116 119 132 141 144 166 196 193 138 137 124 124 151 161 162 162 163 162 161
106 102 93 88 96 91 89 99 103 103 101 94 91 99 96 90 88 91 104 105 104 108 119 120 135 166 201 156 158 187 193 159 153 150 121 138 157 166 169 169 169 171 170
115 110 107 97 77 85 93 95 90 94 102 109 102 101 96 107 113 110 125 136 133 147 148 147 180 181 143 107 152 167 144 159 152 144 129 147 165 173 177 176 177 178 179
121 116 109 111 104 82 79 95 107 110 112 106 109 112 108 96 92 91 89 97 131 124 122 148 151 110 107 143 151 144 166 185 157 136 131 151 169 180 182 183 184 186 186
137 128 114 112 109 111 100 88 96 93 98 110 116 114 113 116 107 98 89 57 74 114 154 168 135 126 146 157 165 147 163 143 160 166 136 158 175 183 186 187 189 192 193
152 135 133 137 124 124 128 114 99 103 110 107 121 120 127 110 103 108 119 116 102 113 51 20 116 146 177 142 159 143 195 182 160 178 168 164 178 186 191 193 196 198 199
158 142 151 152 141 149 153 157 124 125 132 127 125 141 156 147 136 167 148 190 89 102 132 203 134 172 184 177 169 167 184 209 184 190 194 185 179 186 193 197 202 204 204
166 159 169 174 155 168 184 275 85 102 116 132 139 140 163 169 186 216 191 99 12 219 195 173 216 208 184 204 189 199 171 179 203 199 203 194 197 185 186 193 201 206 210
173 171 180 185 179 186 187 201 192 138 100 146 138 147 162 201 212 237 287 10 246 238 248 258 112 251 222 217 207 196 191 186 196 204 202 194 188 199 185 173 190 198 206
177 179 185 187 193 202 195 192 188 173 197 168 130 128 184 197 212 242 222 235 257 246 248 281 269 259 249 232 239 153 178 176 197 189 199 182 180 192 197 176 181 193 199
183 185 188 194 187 200 199 206 193 181 186 166 163 127 206 218 224 257 291 250 263 259 279 271 262 225 224 220 207 178 167 162 155 173 188 188 174 183 186 185 198 196 182
190 191 191 196 193 199 190 196 206 189 191 151 122 120 251 223 241 237 279 277 270 269 263 273 267 271 230 192 233 213 185 171 167 161 166 173 163 165 177 183 185 187 213
193 194 195 196 193 197 190 190 174 180 203 180 183 175 221 266 264 291 276 285 283 269 267 279 268 264 266 219 267 284 270 179 150 148 154 146 153 163 182 170 179 180 193
194 190 190 190 192 192 194 198 197 200 198 185 217 140 188 253 276 271 276 281 285 290 286 271 269 274 266 250 194 235 297 348 288 176 154 139 149 163 172 190 173 171 182
191 186 184 182 186 190 196 197 205 209 204 191 193 153 243 209 259 277 275 277 278 281 290 296 304 281 264 269 264 199 205 204 246 263 213 151 147 147 161 164 160 148 152
187 185 183 180 185 188 194 198 208 210 214 215 221 211 221 213 230 263 271 276 273 285 279 273 271 257 272 280 281 271 244 253 243 246 241 218 153 125 116 107 122 134 144